VE3TEJ Weather Reports


time (UTC)temp
F
wind
direction
speed
knots
gust
knots
rain 1hr
in
rain 24hr
in
rain mn
in
humidity
%
barometer
mb
20260506002907 50 299 0.0 0.9 0.00 0.04 0.04 80 1006.2
20260506002407 50 291 0.9 0.9 0.00 0.04 0.04 80 1006.3
20260506001908 50 285 0.0 0.0 0.00 0.04 0.04 79 1006.5
20260506001408 50 285 0.0 0.9 0.00 0.04 0.04 78 1006.4
20260506000908 50 273 0.9 0.9 0.00 0.04 0.04 77 1006.4
20260506000408 50 285 0.9 0.9 0.00 0.04 0.04 77 1006.4
20260505235907 50 279 0.0 0.9 0.00 0.04 0.04 77 1006.3
20260505235408 50 277 0.9 0.9 0.00 0.04 0.04 78 1006.4
20260505234908 50 289 0.0 0.0 0.00 0.04 0.04 78 1006.1
20260505234408 50 285 0.0 0.0 0.00 0.04 0.04 77 1005.9
20260505233907 50 289 0.0 0.0 0.00 0.04 0.04 77 1006.0
20260505233407 50 290 0.0 0.0 0.00 0.04 0.04 76 1006.1
20260505232908 50 290 0.0 0.0 0.00 0.04 0.04 76 1006.1
20260505232408 50 289 0.0 0.0 0.00 0.04 0.04 76 1006.3
20260505231908 50 289 0.0 0.0 0.00 0.04 0.04 76 1006.2
20260505231407 50 287 0.0 0.0 0.00 0.04 0.04 76 1006.3
20260505230909 50 285 0.0 0.0 0.00 0.04 0.04 76 1006.1
20260505230408 50 287 0.0 0.0 0.00 0.04 0.04 76 1006.3
20260505225908 50 288 0.0 0.0 0.00 0.04 0.04 75 1006.4
20260505225407 51 289 0.0 0.0 0.00 0.04 0.04 75 1006.2
20260505224907 51 286 0.0 0.0 0.00 0.04 0.04 75 1006.3
20260505224409 51 285 0.0 0.9 0.00 0.04 0.04 75 1006.3
20260505223908 50 285 0.0 0.9 0.00 0.04 0.04 75 1006.4
20260505223408 51 283 0.9 0.9 0.00 0.04 0.04 76 1006.5
20260505222908 51 289 0.0 0.0 0.00 0.04 0.04 75 1006.6
20260505222407 51 288 0.0 0.9 0.00 0.04 0.04 75 1006.4
20260505221907 50 289 0.0 0.0 0.00 0.04 0.04 75 1006.3
20260505221408 50 288 0.0 0.0 0.00 0.04 0.04 75 1006.4
20260505220908 50 294 0.9 0.9 0.00 0.04 0.04 76 1006.2
20260505220407 50 290 0.0 0.0 0.00 0.04 0.04 77 1006.5
20260505215907 50 290 0.0 0.0 0.00 0.04 0.04 77 1006.4
20260505215409 50 285 0.0 0.0 0.00 0.04 0.04 77 1006.3
20260505214908 50 283 0.0 0.9 0.00 0.04 0.04 77 1006.4
20260505214408 50 286 0.0 0.0 0.00 0.04 0.04 77 1006.3
20260505213908 50 285 0.0 0.9 0.00 0.04 0.04 77 1006.5
20260505213407 50 290 0.0 0.9 0.00 0.04 0.04 77 1006.6
20260505212907 50 287 0.0 1.7 0.00 0.04 0.04 77 1006.6
20260505212408 50 284 0.9 0.9 0.00 0.04 0.04 77 1006.6
20260505211908 49 285 0.9 1.7 0.00 0.04 0.04 77 1006.6
20260505211408 49 285 0.0 0.0 0.00 0.04 0.04 78 1006.8
20260505210907 49 285 0.0 0.9 0.00 0.04 0.04 78 1006.7
20260505210407 49 284 0.9 0.9 0.00 0.04 0.04 78 1006.5
20260505205908 49 286 0.9 1.7 0.00 0.04 0.04 79 1006.5
20260505205408 49 292 0.0 0.9 0.00 0.04 0.04 78 1006.4
20260505204908 49 282 0.9 0.9 0.00 0.04 0.04 78 1006.3
20260505204407 49 284 0.0 0.9 0.00 0.04 0.04 78 1006.5
20260505203907 49 286 0.0 0.9 0.00 0.04 0.04 78 1006.6
20260505203409 49 285 0.9 0.9 0.00 0.04 0.04 77 1006.5
20260505202908 49 285 0.9 1.7 0.00 0.04 0.04 77 1006.6
20260505202408 50 284 0.9 0.9 0.00 0.04 0.04 78 1006.6
20260505201907 49 282 0.9 1.7 0.00 0.04 0.04 77 1006.7
20260505201407 50 285 0.9 1.7 0.00 0.04 0.04 78 1006.8
20260505200908 49 285 0.0 0.9 0.00 0.04 0.04 77 1006.6
20260505200408 50 286 0.9 0.9 0.01 0.04 0.04 77 1006.9
20260505195908 50 281 0.9 0.9 0.01 0.04 0.04 77 1006.7
20260505195407 49 283 0.9 0.9 0.02 0.04 0.04 78 1006.7
20260505194907 50 281 0.0 1.7 0.03 0.04 0.04 79 1006.5
20260505194408 50 283 0.0 0.0 0.03 0.04 0.04 80 1006.3
20260505193908 50 286 0.0 0.9 0.03 0.04 0.04 80 1006.3
20260505193408 50 285 0.0 0.0 0.03 0.04 0.04 81 1006.5
20260505192907 49 285 0.0 0.9 0.04 0.04 0.04 81 1006.4
20260505192407 49 286 0.9 0.9 0.04 0.04 0.04 81 1006.6
20260505191908 49 285 0.9 0.9 0.04 0.04 0.04 80 1006.6
20260505191408 49 286 0.0 0.9 0.04 0.04 0.04 81 1006.2
20260505190908 49 286 0.0 0.0 0.04 0.04 0.04 81 1006.0
20260505190407 49 290 0.9 1.7 0.03 0.03 0.03 80 1006.0
20260505185909 49 308 1.7 1.7 0.03 0.03 0.03 78 1006.2
20260505185408 50 285 0.9 0.9 0.02 0.02 0.02 75 1006.3
20260505184908 50 286 0.0 0.0 0.01 0.01 0.01 73 1006.2
20260505184407 51 281 0.9 1.7 0.01 0.01 0.01 72 1005.9
20260505183908 50 289 0.0 0.9 0.01 0.01 0.01 71 1005.7
20260505183407 50 285 0.9 0.9 0.01 0.01 0.01 71 1006.2
20260505182907 51 286 0.9 1.7 0.00 0.00 0.00 70 1006.3
20260505182409 52 282 0.9 0.9 0.00 0.00 0.00 68 1006.1
20260505181908 52 286 0.9 0.9 0.00 0.00 0.00 64 1006.3
20260505181408 53 309 0.9 0.9 0.00 0.00 0.00 66 1005.9
20260505180907 53 282 0.9 1.7 0.00 0.00 0.00 63 1005.9
20260505180407 53 281 0.9 1.7 0.00 0.00 0.00 65 1005.8
20260505175909 54 289 0.9 1.7 0.00 0.00 0.00 63 1005.5
20260505175408 54 302 1.7 1.7 0.00 0.00 0.00 63 1005.6
20260505174908 54 285 0.9 1.7 0.00 0.00 0.00 60 1005.4
20260505174407 55 287 0.9 1.7 0.00 0.00 0.00 59 1005.7
20260505173907 55 278 1.7 2.6 0.00 0.00 0.00 58 1005.8
20260505173409 55 281 0.9 1.7 0.00 0.00 0.00 59 1005.8
20260505172908 56 277 2.6 5.2 0.00 0.00 0.00 58 1005.5
20260505172408 56 275 1.7 2.6 0.00 0.00 0.00 60 1005.3
20260505171907 57 274 1.7 2.6 0.00 0.00 0.00 60 1005.3
20260505171407 57 289 1.7 1.7 0.00 0.00 0.00 60 1005.0
20260505170909 57 273 0.9 4.3 0.00 0.00 0.00 60 1004.9
20260505170408 58 291 1.7 4.3 0.00 0.00 0.00 62 1004.9
20260505165908 58 282 1.7 1.7 0.00 0.00 0.00 60 1004.7
20260505165407 58 280 0.9 1.7 0.00 0.00 0.00 60 1004.7
20260505164907 58 293 0.9 1.7 0.00 0.00 0.00 62 1004.6
20260505164408 59 279 1.7 1.7 0.00 0.00 0.00 60 1004.6
20260505163908 59 280 0.9 0.9 0.00 0.00 0.00 61 1004.5
20260505163407 59 292 0.0 0.9 0.00 0.00 0.00 62 1004.4
20260505162908 58 275 0.9 1.7 0.00 0.00 0.00 60 1004.6
20260505162408 57 283 0.9 0.9 0.00 0.00 0.00 60 1004.8
20260505161907 57 275 1.7 2.6 0.00 0.00 0.00 61 1004.6
20260505161407 58 281 1.7 1.7 0.00 0.00 0.00 61 1004.7
20260505160907 57 281 0.9 1.7 0.00 0.00 0.00 61 1004.7
20260505160407 57 288 0.9 1.7 0.00 0.00 0.00 61 1004.9
20260505152908 55 285 0.9 1.7 0.00 0.00 0.00 63 1005.1
20260505152407 56 309 1.7 4.3 0.00 0.00 0.00 63 1004.8
20260505151907 57 285 1.7 2.6 0.00 0.00 0.00 63 1004.6
20260505151408 57 265 1.7 2.6 0.00 0.00 0.00 63 1004.5
20260505150908 58 293 1.7 5.2 0.00 0.00 0.00 63 1004.2
20260505150408 58 281 2.6 4.3 0.00 0.00 0.00 63 1003.7
20260505140407 56 299 0.9 1.7 0.00 0.00 0.00 66 1002.9
20260505124907 52 285 0.0 0.9 0.00 0.00 0.00 78 1002.3
20260505124407 51 287 0.9 0.9 0.00 0.00 0.00 79 1002.5
20260505123909 51 300 0.9 2.6 0.00 0.00 0.00 79 1002.2
20260505123408 52 283 0.9 1.7 0.00 0.00 0.00 78 1002.2
20260505122908 52 275 1.7 2.6 0.00 0.00 0.00 78 1002.1
20260505122407 53 276 1.7 4.3 0.00 0.00 0.00 78 1002.0
20260505121909 54 305 1.7 2.6 0.00 0.00 0.00 77 1001.4
20260505121407 58 285 1.7 2.6 0.00 0.00 0.00 77 1001.2
20260505120907 58 279 0.9 1.7 0.00 0.00 0.00 78 1001.0
20260505120408 58 270 2.6 2.6 0.00 0.00 0.00 78 1001.2
20260505115908 58 271 1.7 2.6 0.00 0.00 0.00 78 1001.1
20260505115408 58 280 0.9 1.7 0.00 0.00 0.00 78 1000.7
20260505114907 58 278 1.7 2.6 0.00 0.00 0.00 78 1000.7
20260505114407 58 261 2.6 2.6 0.00 0.00 0.00 77 1000.4
20260505113908 58 282 2.6 4.3 0.00 0.00 0.00 77 1000.5
20260505113408 58 255 1.7 1.7 0.00 0.00 0.00 77 1000.5
20260505112908 58 270 1.7 2.6 0.00 0.00 0.00 77 1000.3
20260505112407 58 269 1.7 2.6 0.00 0.00 0.00 77 1000.3
20260505111909 58 270 1.7 4.3 0.00 0.00 0.00 77 1000.2
20260505111408 58 287 0.9 0.9 0.00 0.00 0.00 77 1000.2
20260505110908 58 279 0.9 4.3 0.00 0.00 0.00 77 1000.0
20260505110407 58 284 2.6 4.3 0.00 0.00 0.00 77 1000.0
20260505101908 58 282 1.7 2.6 0.00 0.00 0.00 77 1000.0
20260505101407 58 277 0.9 0.9 0.00 0.00 0.00 77 1000.1
20260505100907 58 273 1.7 2.6 0.00 0.00 0.00 76 999.9
20260505100409 58 265 2.6 2.6 0.00 0.00 0.00 76 999.9
20260505095908 58 267 1.7 1.7 0.00 0.00 0.00 77 999.8
20260505095408 58 277 1.7 1.7 0.00 0.00 0.00 77 999.8
20260505094907 58 283 0.9 1.7 0.00 0.00 0.00 76 999.7
20260505094408 58 268 1.7 1.7 0.00 0.00 0.00 76 999.6
20260505093907 58 273 1.7 2.6 0.00 0.00 0.00 76 999.5
20260505093407 58 282 1.7 1.7 0.00 0.00 0.00 76 999.5
20260505092907 58 272 0.9 1.7 0.00 0.00 0.00 76 999.3
20260505092408 58 281 0.9 0.9 0.00 0.00 0.00 76 999.5
20260505091908 58 282 0.9 1.7 0.00 0.00 0.00 76 999.4
20260505091408 58 285 0.9 1.7 0.00 0.00 0.00 76 999.3
20260505090907 59 280 0.9 1.7 0.00 0.00 0.00 76 999.3
20260505090407 59 285 1.7 1.7 0.00 0.00 0.00 76 999.1
20260505085908 59 283 0.9 1.7 0.00 0.00 0.00 76 999.1
20260505085408 58 271 0.9 0.9 0.00 0.00 0.00 76 999.0
20260505084908 58 281 0.0 0.9 0.00 0.00 0.00 77 999.0
20260505084408 58 284 0.0 0.9 0.00 0.00 0.00 77 998.9
20260505083908 58 274 0.9 0.9 0.00 0.00 0.00 78 998.8
20260505083407 58 283 0.9 0.9 0.00 0.00 0.00 78 998.9
20260505082907 58 280 0.9 0.9 0.00 0.00 0.00 78 998.7
20260505082409 58 283 0.9 1.7 0.00 0.00 0.00 78 998.6
20260505081908 58 279 1.7 1.7 0.00 0.00 0.00 78 998.7
20260505081408 58 276 0.9 0.9 0.00 0.00 0.00 77 998.8
20260505080908 58 283 0.9 0.9 0.00 0.00 0.00 77 998.5
20260505080407 58 273 0.9 0.9 0.00 0.00 0.00 77 998.6
20260505075907 58 278 0.9 0.9 0.00 0.00 0.00 77 998.8
20260505075408 58 276 0.9 0.9 0.00 0.00 0.00 76 998.5
20260505074908 58 282 0.0 0.9 0.00 0.00 0.00 76 998.5
20260505074407 59 285 0.0 1.7 0.00 0.00 0.00 76 998.6
20260505073907 59 284 0.9 1.7 0.00 0.00 0.00 76 998.5
20260505073409 59 277 0.9 1.7 0.00 0.00 0.00 75 998.4
20260505072908 59 279 0.0 1.7 0.00 0.00 0.00 75 998.5
20260505072408 59 251 0.9 2.6 0.00 0.00 0.00 74 998.6
20260505071907 60 256 0.9 1.7 0.00 0.00 0.00 74 998.7
20260505071407 60 282 0.9 4.3 0.00 0.00 0.00 73 998.6
20260505070908 60 285 0.9 1.7 0.00 0.00 0.00 73 998.7
20260505070408 60 288 0.9 1.7 0.00 0.00 0.00 72 998.8
20260505065908 60 256 1.7 1.7 0.00 0.00 0.00 72 998.9
20260505065407 60 258 0.9 4.3 0.00 0.00 0.00 72 998.6
20260505064909 60 274 0.9 2.6 0.00 0.00 0.00 72 998.6
20260505064408 59 279 1.7 1.7 0.00 0.00 0.00 73 998.7
20260505063908 59 285 1.7 1.7 0.00 0.00 0.00 74 998.8
20260505063407 59 263 0.9 1.7 0.00 0.00 0.00 74 999.1
20260505062907 59 282 0.9 1.7 0.00 0.00 0.00 74 999.2
20260505062409 58 275 0.9 1.7 0.00 0.00 0.00 74 999.1
20260505061908 58 239 0.9 1.7 0.00 0.00 0.00 74 999.4
20260505061408 58 273 1.7 2.6 0.00 0.00 0.00 74 999.2
20260505060908 58 255 1.7 1.7 0.00 0.00 0.00 74 999.4
20260505060408 58 274 0.9 1.7 0.00 0.00 0.00 74 999.5
20260505055908 58 271 1.7 2.6 0.00 0.00 0.00 75 999.5
20260505055407 58 255 0.9 1.7 0.00 0.00 0.00 75 999.7
20260505054909 58 287 1.7 2.6 0.00 0.00 0.00 75 999.6
20260505054408 58 269 0.9 2.6 0.00 0.00 0.00 75 999.7
20260505053908 58 239 1.7 2.6 0.00 0.00 0.00 75 999.5
20260505053407 58 260 0.9 1.7 0.00 0.00 0.00 75 999.8
20260505052907 58 280 1.7 2.6 0.00 0.00 0.00 75 999.6
20260505052408 58 236 2.6 4.3 0.00 0.00 0.00 75 999.8
20260505051908 58 245 1.7 1.7 0.00 0.00 0.00 74 999.9
20260505051407 58 270 0.9 2.6 0.00 0.00 0.00 74 1000.1
20260505050907 59 256 1.7 1.7 0.00 0.00 0.00 74 999.9
20260505050409 59 258 1.7 2.6 0.00 0.00 0.00 74 999.9
20260505041407 60 273 1.7 4.3 0.00 0.00 0.00 74 999.8
20260505040907 60 252 2.6 2.6 0.00 0.00 0.00 74 1000.0
20260505040409 60 279 0.9 1.7 0.00 0.00 0.00 73 999.9
20260505035908 60 268 1.7 2.6 0.00 0.00 0.00 73 1000.0
20260505035408 60 247 1.7 1.7 0.00 0.00 0.00 73 999.9
20260505034907 59 255 1.7 2.6 0.00 0.00 0.00 75 1000.1
20260505034408 59 274 0.9 0.9 0.00 0.00 0.00 76 1000.0
20260505033907 59 271 1.7 1.7 0.00 0.00 0.00 77 1000.1
20260505033407 60 279 0.9 1.7 0.00 0.00 0.00 77 1000.3
20260505032909 60 257 1.7 2.6 0.00 0.00 0.00 77 1000.2
20260505032408 60 260 0.9 1.7 0.00 0.00 0.00 75 1000.2
20260505031908 61 271 0.9 4.3 0.00 0.00 0.00 70 1000.5
20260505031407 61 273 1.7 1.7 0.00 0.00 0.00 68 1000.8
20260505030907 61 276 1.7 4.3 0.00 0.00 0.00 69 1000.7
20260505030408 62 285 1.7 1.7 0.00 0.00 0.00 68 1000.7
20260505025908 62 235 2.6 6.1 0.00 0.00 0.00 66 1001.0
20260505025408 62 235 1.7 2.6 0.00 0.00 0.00 64 1000.9
20260505024907 62 226 2.6 4.3 0.00 0.00 0.00 65 1000.7
20260505024409 62 312 1.7 1.7 0.00 0.00 0.00 69 1000.6
20260505024210 62 284 0.9 4.3 0.00 0.00 0.00 71 1000.8
20260505023908 62 290 1.7 1.7 0.00 0.00 0.00 71 1000.8
20260505023408 62 280 0.9 0.9 0.00 0.00 0.00 71 1000.8
20260505022907 62 276 1.7 1.7 0.00 0.00 0.00 69 1001.0
20260505022407 62 275 1.7 1.7 0.00 0.00 0.00 69 1001.0
20260505021909 62 284 2.6 4.3 0.00 0.00 0.00 69 1000.8
20260505021408 62 290 1.7 2.6 0.00 0.00 0.00 69 1000.9
20260505020908 62 268 2.6 4.3 0.00 0.00 0.00 68 1000.7
20260505020407 62 260 1.7 1.7 0.00 0.00 0.00 68 1000.8
20260505015907 61 314 0.9 2.6 0.00 0.00 0.00 69 1000.7
20260505015408 62 279 0.9 1.7 0.00 0.00 0.00 68 1000.6
20260505014908 61 276 1.7 2.6 0.00 0.00 0.00 67 1000.5
20260505014408 61 280 0.9 1.7 0.00 0.00 0.00 68 1000.6
20260505013907 61 272 1.7 4.3 0.00 0.00 0.00 68 1000.3
20260505013409 60 267 1.7 2.6 0.00 0.00 0.00 68 999.8
20260505012908 60 276 1.7 2.6 0.00 0.00 0.00 69 999.6
20260505012408 60 278 1.7 2.6 0.00 0.00 0.00 69 999.7
20260505011907 60 275 1.7 2.6 0.00 0.00 0.00 69 999.7
20260505011407 60 279 0.9 1.7 0.00 0.00 0.00 69 999.7
20260505010909 60 282 1.7 2.6 0.00 0.00 0.00 69 999.7
20260505010408 60 272 0.9 1.7 0.00 0.00 0.00 68 999.9
20260505005908 60 256 4.3 6.1 0.00 0.00 0.00 67 999.8
20260505005407 61 267 1.7 2.6 0.00 0.00 0.00 66 999.7
20260505004907 61 254 2.6 4.3 0.00 0.00 0.00 65 999.6
20260505004409 62 274 1.7 1.7 0.00 0.00 0.00 64 999.6
20260505003908 62 264 1.7 1.7 0.00 0.00 0.00 63 999.6
20260505003408 63 260 1.7 2.6 0.00 0.00 0.00 62 999.7